星链-1631 (STARLINK-1631 )

导读

STARLINK-1631是美国太空探索技术公司(SpaceX)星链(Starlink)星座的卫星,于2020年8月18日发射升空。星链项目旨在构建全球卫星互联网,为全球偏远地区、海洋、航空等领域提供高速网络接入服务,该卫星承担着低轨网络通信任务,是星链星座组网进程中的一员。

基本信息
目录编号:
46151
目录名称:
STARLINK-1631
国际标识:
2020-057AL
轨道中心:
EARTH
卫星名称:
星链-1631
卫星全名:
星链-1631 (STARLINK-1631 )
卫星状态:
已陨落 最后检测时间 2025-06-06
发射日期:
2020-08-18 UTC
国别 :
美国 (US)
星等 :
--
该卫星已列入 空间交会检测服务 Space Conjunction Data Service (SCDS) ,当前飞行风险评估等级: 无高风险
轨道信息
数据来源 国际轨道数据
星历时间: 2025-06-06T02:46:21+0800
轨道信息已过期462天
半长轴: 6534.781km
偏心率: 0.000865
轨道倾角: 53.022°
近地点辐角 259.731°
升交点赤经 54.605°
平近点角 207.757°
近地点: 150.993km
远地点: 162.299km
周期: 87.621分钟
每日圈数: 16.434492
详细信息
固有亮度:
5
最大亮度:
2.5
卫星平台:
Starlink V1.0
覆盖范围:
全球
运营商:
太空探索技术公司
运营商所在国:
美国
制造商(研发单位):
太空探索技术公司
制造商所在国:
美国
使用方式:
暂无
卫星简介
星链(Starlink)计划是由太空探索技术公司(SpaceX)提出的一个巨型低轨卫星互联网星座项目,计划在2019年至2024年间在太空搭建由约1.2万颗卫星组成的“星链”网络,其中1584颗将部署在地球上空550千米处的近地轨道,并从2020年开始工作。该卫星仍在工作。
与全量物体交会距离演化趋势
与全量物体交会风险概率演化趋势